Location: Edinburgh
(55.9500°N, 3.1600°W)
Time: 16:44:42
(UTC+00:00)

Envisat - Pass Details

Date: 13 October 2017
Orbit: 764 x 766 km, 98.2° (Epoch: 16 December)

Event Time Altitude Azimuth Distance (km) Brightness Sun altitude
Exits shadow 22:36:37 - 245° (WSW) 2,374 5.7 -34.6°
Reaches altitude 10° 22:36:58 10° 248° (WSW) 2,308 5.7 -34.6°
Maximum altitude 22:39:26 14° 278° (W) 2,074 5.7 -34.9°
Drops below altitude 10° 22:41:56 10° 307° (NW) 2,317 6.2 -35.1°
Sets 22:45:33 0° 334° (NNW) 3,250 7.2 -35.5°
